Location: Drummondville
(45.8830°N, 72.4830°W)
Time: 04:35:50
(UTC-05:00)

Vanguard 3 - Visible Passes

Search period start: 23 November 2017 00:00
Search period end: 03 December 2017 00:00
Orbit: 509 x 3263 km, 33.3° (Epoch: 22 November)

Date Brightness Start Highest point End Pass type
(mag) Time Alt. Az. Time Alt. Az. Time Alt. Az.
23 Nov 9.4 18:36:14 10° SW 18:44:05 39° SSE 18:48:18 31° SE visible
23 Nov 9.8 20:46:28 10° WSW 20:52:52 38° SW 20:52:52 38° SW visible
24 Nov 9.5 17:24:18 10° SSW 17:30:25 27° SSE 17:38:29 13° ESE visible
24 Nov 9.4 19:33:24 10° WSW 19:42:12 45° S 19:43:04 45° SSE visible
24 Nov 10.5 21:44:31 10° WSW 21:47:37 22° WSW 21:47:37 22° WSW visible
25 Nov 9.3 18:20:50 10° SW 18:28:01 38° SSE 18:33:16 26° ESE visible
25 Nov 9.7 20:31:03 10° WSW 20:37:49 40° SSW 20:37:49 40° SSW visible
26 Nov 9.4 17:08:53 10° SSW 17:14:27 27° SSE 17:23:02 10° E visible
26 Nov 9.3 19:18:03 10° WSW 19:26:07 43° S 19:28:03 40° SSE visible
26 Nov 10.3 21:29:07 10° WSW 21:32:37 23° WSW 21:32:37 23° WSW visible
27 Nov 9.2 18:05:32 10° SW 18:12:05 36° SSE 18:18:17 21° ESE visible
27 Nov 9.6 20:15:44 10° WSW 20:22:51 39° SSW 20:22:51 39° SSW visible
28 Nov 9.3 16:53:31 10° SSW 16:58:36 26° SSE 17:06:20 10° ESE visible
28 Nov 9.3 19:02:48 10° WSW 19:10:08 40° S 19:13:08 35° SSE visible
28 Nov 10.2 21:13:50 10° WSW 21:17:42 24° WSW 21:17:42 24° WSW visible
29 Nov 9.1 17:50:18 10° SW 17:56:14 35° SSE 18:03:26 16° ESE visible
29 Nov 9.6 20:00:29 10° WSW 20:08:01 37° SSW 20:08:01 37° SSW visible
30 Nov 9.2 16:38:14 10° SSW 16:42:50 25° SSE 16:49:43 10° ESE visible
30 Nov 9.3 18:47:37 10° WSW 18:54:14 36° S 18:58:22 28° SE visible
30 Nov 10.2 20:58:43 10° WSW 21:02:57 24° SW 21:02:57 24° SW visible
01 Dec 9.1 17:35:06 10° SW 17:40:29 32° S 17:48:46 11° ESE visible
01 Dec 9.6 19:45:22 10° WSW 19:52:30 32° S 19:53:21 32° S visible
02 Dec 9.3 18:32:30 10° WSW 18:38:27 32° S 18:43:50 20° SE visible
02 Dec 10.2 20:43:47 10° WSW 20:48:25 22° SW 20:48:25 22° SW visible
